User: anonymous   Login
Location: Table Mountain
(47.2500°N, 120.5778°W)
Time: 19:06:20
(UTC-08:00)
Language:

POLYITAN 1 - Orbit

View from above orbital plane
View from above orbital plane
View from above satellite
View from above satellite

Ground track
Ground track

The orbit data is extracted from the following two-line orbital elements,

1 40042U 14033AJ  18343.79513201  .00000349  00000-0  43624-4 0  9997
2 40042  97.9124 259.0085 0013959 321.6479  38.3744 14.88522182242831
Epoch (UTC): 09 December 2018 19:04:59
Eccentricity: 0.0013959
inclination: 97.9124°
perigee height: 593 km
apogee height: 612 km
right ascension of ascending node: 259.0085°
argument of perigee: 321.6479°
revolutions per day: 14.88522182
mean anomaly at epoch: 38.3744°
orbit number at epoch: 24283

The dashed part of the orbit path shows where the satellite is in the earth's shadow,  

DLR